Location: Bottens
(46.6171°N, 6.6605°E)
Time: 01:03:04
(UTC+00:00)

EXPRESS MD2 - Visible Passes

Search period start: 24 October 2021 00:00
Search period end: 03 November 2021 00:00
Orbit: 261 x 3928 km, 49.9° (Epoch: 22 October)

Date Brightness Start Highest point End Pass type
(mag) Time Alt. Az. Time Alt. Az. Time Alt. Az.
24 Oct 7.6 03:05:33 15° SSW 03:05:33 15° SSW 03:08:48 10° S visible
25 Oct 7.8 02:49:21 12° S 02:49:21 12° S 02:50:34 10° S visible
28 Oct 5.6 18:42:49 10° WSW 18:42:52 10° WSW 18:42:52 10° WSW visible
29 Oct 4.7 18:24:58 10° WSW 18:25:43 19° WSW 18:25:43 19° WSW visible
30 Oct 3.3 18:07:04 10° WSW 18:08:30 38° WSW 18:08:30 38° WSW visible
31 Oct 1.7 17:49:06 10° WSW 17:51:12 87° S 17:51:12 87° S visible
01 Nov 1.7 17:31:04 10° WSW 17:33:13 81° SSE 17:33:51 40° ENE visible
02 Nov 1.8 17:12:58 10° WSW 17:15:09 75° SSE 17:16:26 21° ENE visible
